Date String (YYYY-MM-DD hh:mm:ss) UTC,Instrument flags,Ambient pressure (hPa),Sample flow (lpm),Bypass flow (lpm),Sample temperature (°C),Ambient temperature (°C),ASC tube jacket temperature (°C),LED temperature (°C),Box temperature (°C),Sample RH (%),Span deviation,Mass concentration (μg/m³),Mass concentration (μg/m³),Mass concentration (μg/m³)
DateTimeUTC,F1_M11,P_M11,Q1_M11,Q2_M11,T1_M11,T2_M11,T3_M11,T4_M11,T5_M11,U1_M11,ZSPAN_M11,X0_M11,X2_M11,X1_M11
2023-01-14 18:00:00,,0818.6,4.99,0.00,25.2,24.2,00.0,33.8,27.0,11.0,0000.0,0001.41,0000.95,0000.78
2023-01-14 18:01:00,,0818.6,5.00,0.00,25.2,24.2,00.0,33.8,27.1,11.5,0000.0,0001.54,0001.02,0000.81
2023-01-14 18:02:00,,0818.4,5.00,0.00,25.2,24.2,00.0,33.9,27.1,11.8,0000.0,0001.82,0001.12,0000.86
2023-01-14 18:03:00,,0818.5,4.99,0.00,25.2,24.2,00.0,33.9,27.1,11.2,0000.0,0001.88,0001.16,0000.90
2023-01-14 18:04:00,,0818.5,5.00,0.00,25.2,24.2,00.0,33.9,27.1,11.1,0000.0,0001.94,0001.19,0000.92
2023-01-14 18:05:00,,0818.5,5.00,0.00,25.3,24.2,00.0,33.9,27.1,11.3,0000.0,0002.24,0001.22,0000.94
2023-01-14 18:06:00,,0818.4,5.00,0.00,25.3,24.3,00.0,33.9,27.2,10.6,0000.0,0002.35,0001.22,0000.93
2023-01-14 18:07:00,,0818.4,5.00,0.00,25.3,24.3,00.0,33.9,27.2,10.4,0000.0,0002.33,0001.20,0000.91
2023-01-14 18:08:00,,0818.4,5.00,0.00,25.3,24.3,00.0,34.0,27.2,11.3,0000.0,0002.24,0001.18,0000.90
2023-01-14 18:09:00,,0818.5,5.00,0.00,25.3,24.3,00.0,34.0,27.2,11.3,0000.0,0002.24,0001.19,0000.90
2023-01-14 18:10:00,,0818.4,4.99,0.00,25.3,24.3,00.0,34.0,27.2,10.9,0000.0,0002.22,0001.16,0000.89
2023-01-14 18:11:00,,0818.3,4.99,0.00,25.3,24.3,00.0,34.0,27.2,09.7,0000.0,0002.13,0001.11,0000.86
2023-01-14 18:12:00,,0818.3,5.00,0.00,25.3,24.3,00.0,34.0,27.2,10.4,0000.0,0002.03,0001.05,0000.82
2023-01-14 18:13:00,,0818.3,5.00,0.00,25.3,24.2,00.0,34.0,27.2,10.5,0000.0,0001.92,0001.00,0000.79
2023-01-14 18:14:00,,0818.2,5.00,0.00,25.3,24.2,00.0,34.1,27.2,10.6,0000.0,0001.88,0000.98,0000.76
2023-01-14 18:15:00,,0818.3,5.01,0.00,25.3,24.2,00.0,34.1,27.2,10.8,0000.0,0001.86,0000.96,0000.75
2023-01-14 18:16:00,,0818.4,5.00,0.00,25.3,24.2,00.0,34.1,27.2,10.1,0000.0,0001.64,0000.92,0000.73
2023-01-14 18:17:00,,0818.3,5.00,0.00,25.3,24.1,00.0,34.1,27.2,10.2,0000.0,0001.39,0000.88,0000.70
2023-01-14 18:18:00,,0818.2,5.01,0.00,25.3,24.1,00.0,34.1,27.2,10.4,0000.0,0001.43,0000.88,0000.69
2023-01-14 18:19:00,,0818.2,5.00,0.00,25.3,24.1,00.0,34.1,27.2,10.9,0000.0,0001.47,0000.88,0000.69
2023-01-14 18:20:00,,0818.1,4.99,0.00,25.3,24.0,00.0,34.1,27.1,11.2,0000.0,0001.45,0000.85,0000.67
2023-01-14 18:21:00,,0818.3,4.99,0.00,25.3,24.1,00.0,34.1,27.2,11.6,0000.0,0001.53,0000.86,0000.65
2023-01-14 18:22:00,,0818.3,5.01,0.00,25.3,24.1,00.0,34.1,27.2,11.8,0000.0,0001.51,0000.88,0000.67
2023-01-14 18:23:00,,0818.2,5.00,0.00,25.3,24.1,00.0,34.1,27.2,11.2,0000.0,0001.61,0000.93,0000.70
2023-01-14 18:24:00,,0818.1,5.00,0.00,25.3,24.1,00.0,34.1,27.2,10.1,0000.0,0001.47,0000.88,0000.68
2023-01-14 18:25:00,,0818.0,4.99,0.00,25.3,24.1,00.0,34.1,27.2,09.8,0000.0,0001.40,0000.84,0000.65
2023-01-14 18:26:00,,0818.0,5.00,0.00,25.3,24.1,00.0,34.1,27.1,09.6,0000.0,0001.35,0000.81,0000.62
2023-01-14 18:27:00,,0818.0,5.00,0.00,25.3,24.1,00.0,34.1,27.1,09.7,0000.0,0002.17,0000.78,0000.58
2023-01-14 18:28:00,,0817.9,5.00,0.00,25.3,24.1,00.0,34.1,27.1,09.6,0000.0,0002.65,0000.76,0000.56
2023-01-14 18:29:00,,0817.8,4.99,0.00,25.3,24.1,00.0,34.1,27.2,09.5,0000.0,0002.71,0000.75,0000.54
2023-01-14 18:30:00,,0817.8,5.00,0.00,25.3,24.1,00.0,34.1,27.1,09.5,0000.0,0002.73,0000.71,0000.51
2023-01-14 18:31:00,,0817.7,4.99,0.00,25.3,24.0,00.0,34.1,27.1,09.5,0000.0,0002.66,0000.66,0000.47
2023-01-14 18:32:00,,0817.8,4.99,0.00,25.3,24.0,00.0,34.1,27.1,09.9,0000.0,0002.47,0000.60,0000.44
2023-01-14 18:33:00,,0817.7,5.00,0.00,25.3,24.0,00.0,34.1,27.1,09.8,0000.0,0002.40,0000.55,0000.40
2023-01-14 18:34:00,,0817.8,5.01,0.00,25.3,24.0,00.0,34.1,27.1,09.8,0000.0,0002.27,0000.48,0000.37
2023-01-14 18:35:00,,0817.9,5.01,0.00,25.3,24.0,00.0,34.1,27.1,09.8,0000.0,0002.22,0000.46,0000.36
2023-01-14 18:36:00,,0818.0,5.00,0.00,25.3,24.0,00.0,34.1,27.1,09.3,0000.0,0002.20,0000.46,0000.37
2023-01-14 18:37:00,,0818.0,5.00,0.00,25.3,24.0,00.0,34.1,27.0,09.2,0000.0,0002.29,0000.49,0000.38
2023-01-14 18:38:00,,0817.9,5.01,0.00,25.3,24.0,00.0,34.1,27.1,09.6,0000.0,0001.62,0000.49,0000.38
2023-01-14 18:39:00,,0817.8,5.00,0.00,25.3,24.0,00.0,34.1,27.1,09.7,0000.0,0000.96,0000.49,0000.39
2023-01-14 18:40:00,,0817.7,5.00,0.00,25.3,24.1,00.0,34.1,27.1,10.0,0000.0,0000.87,0000.48,0000.39
2023-01-14 18:41:00,,0817.7,5.00,0.00,25.3,24.1,00.0,34.1,27.1,10.3,0000.0,0000.77,0000.51,0000.40
2023-01-14 18:42:00,,0817.8,5.00,0.00,25.3,24.0,00.0,34.2,27.2,10.6,0000.0,0001.85,0000.53,0000.41
2023-01-14 18:43:00,,0817.8,4.99,0.00,25.3,24.0,00.0,34.2,27.2,09.4,0000.0,0002.70,0000.51,0000.40
2023-01-14 18:44:00,,0817.8,4.99,0.00,25.4,24.0,00.0,34.2,27.1,10.0,0000.0,0002.67,0000.50,0000.39
2023-01-14 18:45:00,,0817.8,5.00,0.00,25.3,24.0,00.0,34.2,27.1,10.2,0000.0,0002.66,0000.49,0000.38
2023-01-14 18:46:00,,0817.7,5.00,0.00,25.4,24.0,00.0,34.2,27.1,10.6,0000.0,0002.62,0000.46,0000.36
2023-01-14 18:47:00,,0817.6,5.00,0.00,25.4,24.0,00.0,34.2,27.1,10.1,0000.0,0002.59,0000.44,0000.34
2023-01-14 18:48:00,,0817.6,5.01,0.00,25.4,24.0,00.0,34.2,27.2,10.2,0000.0,0002.53,0000.41,0000.32
2023-01-14 18:49:00,,0817.5,4.99,0.00,25.4,24.0,00.0,34.2,27.2,10.2,0000.0,0002.49,0000.39,0000.31
2023-01-14 18:50:00,,0817.4,4.99,0.00,25.4,24.0,00.0,34.2,27.1,09.9,0000.0,0002.48,0000.39,0000.30
2023-01-14 18:51:00,,0817.4,5.00,0.00,25.4,24.0,00.0,34.2,27.1,10.0,0000.0,0002.46,0000.38,0000.29
2023-01-14 18:52:00,,0817.4,4.99,0.00,25.4,24.0,00.0,34.2,27.1,09.7,0000.0,0002.43,0000.35,0000.28
2023-01-14 18:53:00,,0817.4,5.00,0.00,25.3,24.0,00.0,34.2,27.1,10.0,0000.0,0001.91,0000.31,0000.26
2023-01-14 18:54:00,,0817.3,5.00,0.00,25.3,23.9,00.0,34.2,27.1,10.7,0000.0,0000.50,0000.31,0000.26
2023-01-14 18:55:00,,0817.1,5.01,0.00,25.3,23.9,00.0,34.2,27.1,10.5,0000.0,0000.51,0000.32,0000.26
2023-01-14 18:56:00,,0817.5,5.00,0.00,25.3,23.9,00.0,34.2,27.1,09.9,0000.0,0000.51,0000.32,0000.26
2023-01-14 18:57:00,,0817.5,5.01,0.00,25.3,23.9,00.0,34.2,27.1,10.4,0000.0,0000.57,0000.33,0000.26
2023-01-14 18:58:00,,0817.4,4.99,0.00,25.3,23.9,00.0,34.2,27.1,10.9,0000.0,0000.59,0000.32,0000.26
2023-01-14 18:59:00,,0817.4,5.00,0.00,25.3,23.9,00.0,34.2,27.1,10.9,0000.0,0000.57,0000.32,0000.27
